[[{"header":{"parameterUnit":"m.s-1","parameterCategory":1,"la1":30.2991,"la2":30.254,"lo1":-89.0895,"lo2":-89.0444,"dy":0.0017,"dx":0.0017,"nx":28,"ny":28,"refTime":"2025-03-26T09:00:00:Z","depth":0,"parameterNumber":2,"parameterNumberName":"U-component_of_WINDS"},"data":[0,0,0,0,0,0,0,0,0,0,0,0,0,0,0,0,0,0,0,0,0,0,0,0,0,0,0,0,0,0,0,0,0,0,0,0,0,0,0,0,0,0,0,0,0,0,0,0,0,0,0,0,0,0,0,0,0,0,-1.5244,-1.5245,0,-1.5377,-1.5379,-1.538,-1.5402,-1.5401,-1.54,-1.5399,-1.5541,-1.5546,-1.5551,0,0,0,0,0,0,0,0,0,0,0,0,0,-1.5013,-1.5017,-1.5244,-1.5245,-1.5247,-1.5377,-1.5379,-1.5381,-1.5402,-1.5401,-1.54,-1.5398,-1.5539,-1.5545,-1.5551,0,0,0,0,0,0,0,0,0,0,0,0,0,-1.5127,-1.5018,-1.5243,-1.5273,-1.5277,-1.5377,-1.5379,-1.5381,-1.5403,-1.5401,-1.5399,-1.5398,-1.5537,-1.5545,-1.5552,-1.5632,0,0,-1.5574,-1.5577,0,0,0,0,0,0,0,0,-1.512,-1.5135,-1.5267,-1.5271,-1.5276,-1.5371,-1.535,-1.5466,-1.5403,-1.5355,-1.5399,-1.5397,-1.5486,-1.5498,-1.5527,-1.5639,-1.5645,-1.5575,-1.5579,-1.5582,-1.5584,0,0,0,0,0,0,0,-1.5112,-1.5129,-1.5297,-1.5269,-1.5275,-1.5282,-1.5296,-1.5372,-1.5429,-1.5359,-1.5361,-1.5376,-1.5488,-1.552,-1.553,-1.5647,-1.5575,-1.5581,-1.5586,-1.5589,-1.5834,-1.5836,0,0,0,0,0,0,-1.5098,-1.5123,-1.5292,-1.5301,-1.5192,-1.5288,-1.5303,-1.5343,-1.5428,-1.544,-1.5378,-1.5377,-1.5508,-1.5522,-1.5535,-1.5636,-1.5582,-1.5589,-1.5593,-1.5832,-1.5835,-1.5837,0,0,0,0,0,0,-1.5093,-1.5113,-1.5287,-1.5212,-1.5235,-1.5293,-1.5337,-1.5346,-1.5377,-1.5442,-1.5453,-1.5399,-1.5507,-1.5525,-1.5608,-1.5641,-1.5593,-1.5599,-1.583,-1.5833,-1.5836,-1.5837,0,0,0,0,0,0,-1.5086,-1.5111,-1.5141,-1.5213,-1.5239,-1.5356,-1.5339,-1.535,-1.5389,-1.5389,-1.5465,-1.5476,-1.5507,-1.5597,-1.5615,-1.565,-1.5605,-1.5827,-1.5831,-1.5835,-1.5835,-1.584,-1.5845,0,0,0,0,0,-1.5078,-1.5137,-1.5142,-1.5162,-1.5277,-1.5357,-1.5373,-1.5406,-1.5392,-1.5423,-1.5465,-1.5473,-1.5635,-1.5605,-1.5626,-1.5664,-1.5825,-1.583,-1.5835,-1.5832,-1.5839,-1.5845,0,0,0,0,0,0,-1.5069,-1.5147,-1.5153,-1.5237,-1.529,-1.5361,-1.5401,-1.5412,-1.5472,-1.5469,-1.551,-1.5527,-1.5608,-1.5645,-1.561,-1.5747,-1.5729,-1.5738,-1.572,-1.5727,-1.5732,-1.5722,-1.5611,0,0,0,0,0,-1.5076,-1.5133,-1.5199,-1.5266,-1.5293,-1.5342,-1.5379,-1.54,-1.5457,-1.548,-1.5528,-1.5586,-1.5649,-1.5691,-1.5753,-1.584,-1.5858,-1.5877,-1.5882,-1.5886,-1.5893,-1.5944,-1.5953,-1.5853,-1.5853,-1.5853,0,0,-1.5092,-1.5142,-1.5176,-1.5266,-1.5309,-1.5369,-1.5361,-1.5425,-1.547,-1.5491,-1.5571,-1.5609,-1.5676,-1.5761,-1.5802,-1.5794,-1.5925,-1.5892,-1.5895,-1.59,-1.595,-1.5959,-1.5967,-1.5856,-1.5855,-1.5855,0,0,-1.5152,-1.5195,-1.5256,-1.53,-1.5366,-1.5399,-1.5414,-1.5483,-1.5508,-1.559,-1.5607,-1.5663,-1.5771,-1.5818,-1.5856,-1.5936,-1.5946,-1.5955,-1.5982,-1.6031,-1.6039,-1.6046,-1.6075,-1.6084,-1.5963,-1.5963,-1.5963,0,-1.5165,-1.5254,-1.5287,-1.535,-1.5389,-1.5409,-1.5473,-1.5514,-1.5598,-1.5626,-1.5616,-1.5753,-1.58,-1.5897,-1.5917,-1.5947,-1.5966,-1.5946,-1.6034,-1.6042,-1.6049,-1.6077,-1.6088,-1.5963,-1.5963,-1.5963,-1.5963,0,-1.5266,-1.5328,-1.5369,-1.5448,-1.5492,-1.5555,-1.56,-1.5641,-1.5659,-1.5694,-1.5778,-1.5834,-1.5908,-1.5933,-1.5952,-1.6034,-1.6028,-1.6026,-1.6008,-1.6059,-1.6086,-1.6097,-1.5964,-1.5964,-1.5964,-1.5964,0,0,-1.5323,-1.5419,-1.5434,-1.547,-1.5545,-1.5594,-1.5659,-1.573,-1.5765,-1.5823,-1.5879,-1.5971,-1.597,-1.6014,-1.6038,-1.6081,-1.6141,-1.6074,-1.6076,-1.6085,-1.6236,-1.6236,-1.6248,-1.6148,-1.6151,-1.6152,-1.6231,0,-1.5392,-1.5505,-1.5537,-1.5634,-1.5692,-1.5713,-1.577,-1.5823,-1.5858,-1.5914,-1.5953,-1.6018,-1.6011,-1.6038,-1.6081,-1.6124,-1.6172,-1.6119,-1.6203,-1.6205,-1.6184,-1.6262,-1.6263,-1.6334,-1.6241,-1.6243,-1.6244,0,-1.5487,-1.5544,-1.5646,-1.5714,-1.574,-1.579,-1.5858,-1.5911,-1.5973,-1.5995,-1.6044,-1.6065,-1.6136,-1.6114,-1.6213,-1.6177,-1.6213,-1.624,-1.6244,-1.6252,-1.6227,-1.6273,-1.6357,-1.6368,-1.6261,-1.626,-1.6259,0,-1.5518,-1.5621,-1.5696,-1.5726,-1.5807,-1.5842,-1.5878,-1.5938,-1.5979,-1.604,-1.6067,-1.6136,-1.6174,-1.6228,-1.6267,-1.6248,-1.6363,-1.6345,-1.6385,-1.6384,-1.6408,-1.6406,-1.6498,-1.6432,-1.6432,-1.6431,-1.6431,0,-1.5591,-1.5653,-1.5711,-1.5756,-1.5827,-1.5865,-1.5934,-1.5971,-1.6025,-1.608,-1.6103,-1.6155,-1.6204,-1.6263,-1.6295,-1.6372,-1.639,-1.6411,-1.6419,-1.6409,-1.6406,-1.6433,-1.6429,-1.6434,-1.6434,-1.6433,-1.6433,0,-1.5638,-1.5679,-1.5761,-1.5831,-1.585,-1.5899,-1.596,-1.6007,-1.6042,-1.6112,-1.6131,-1.6187,-1.6258,-1.6303,-1.6394,-1.6415,-1.65,-1.6507,-1.6478,-1.6482,-1.6519,-1.6515,-1.6632,-1.665,-1.6571,-1.6572,-1.6573,0,-1.5681,-1.5729,-1.5804,-1.5841,-1.5877,-1.5937,-1.5979,-1.6019,-1.6062,-1.6136,-1.6174,-1.6246,-1.6305,-1.6418,-1.6468,-1.6538,-1.6546,-1.6583,-1.6557,-1.6546,-1.6547,-1.6543,-1.6549,-1.6587,-1.6587,-1.6588,-1.6588,0,-1.5754,-1.5773,-1.583,-1.5896,-1.5945,-1.5999,-1.6053,-1.6083,-1.6133,-1.6181,-1.6252,-1.6298,-1.639,-1.6462,-1.6536,-1.6576,-1.6591,-1.6596,-1.6609,-1.6599,-1.6581,-1.6591,-1.6489,-1.6593,-1.6593,-1.6592,-1.6592,-1.6592,-1.5801,-1.5844,-1.5904,-1.5968,-1.6013,-1.6063,-1.611,-1.6152,-1.6211,-1.6287,-1.6309,-1.6383,-1.6446,-1.6547,-1.6589,-1.6649,-1.6645,-1.6664,-1.6668,-1.6672,-1.6672,-1.6571,-1.6663,-1.6663,-1.6663,-1.6663,-1.6663,0,-1.5875,-1.5915,-1.5973,-1.6048,-1.6099,-1.6107,-1.6168,-1.6211,-1.6276,-1.6332,-1.639,-1.6473,-1.6543,-1.6599,-1.6671,-1.6709,-1.6718,-1.6727,-1.6725,-1.6734,-1.6672,-1.6654,-1.6719,-1.6719,-1.6719,-1.6719,-1.6719,-1.6718,-1.592,-1.5994,-1.6019,-1.6117,-1.6157,-1.6228,-1.6262,-1.631,-1.6355,-1.6446,-1.6503,-1.6539,-1.6596,-1.6673,-1.6738,-1.6753,-1.6779,-1.6786,-1.6803,-1.6744,-1.6738,-1.6732,-1.6715,-1.6791,-1.6791,-1.6859,-1.6859,-1.686]},{"header":{"parameterUnit":"m.s-1","parameterCategory":1,"la1":30.2991,"la2":30.254,"lo1":-89.0895,"lo2":-89.0444,"dy":0.0017,"dx":0.0017,"nx":28,"ny":28,"refTime":"2025-03-26T09:00:00:Z","depth":0,"parameterNumber":3,"parameterNumberName":"V-component_of_WINDS"},"data":[0,0,0,0,0,0,0,0,0,0,0,0,0,0,0,0,0,0,0,0,0,0,0,0,0,0,0,0,0,0,0,0,0,0,0,0,0,0,0,0,0,0,0,0,0,0,0,0,0,0,0,0,0,0,0,0,0,0,0.6681,0.6681,0,0.6677,0.6677,0.6677,0.6678,0.6678,0.6678,0.6678,0.6672,0.6672,0.6672,0,0,0,0,0,0,0,0,0,0,0,0,0,0.6689,0.6689,0.6681,0.6681,0.6681,0.6677,0.6677,0.6677,0.6678,0.6678,0.6678,0.6678,0.6672,0.6672,0.6672,0,0,0,0,0,0,0,0,0,0,0,0,0,0.6686,0.6689,0.6681,0.6681,0.6681,0.6677,0.6677,0.6677,0.6678,0.6678,0.6678,0.6678,0.6672,0.6672,0.6672,0.6667,0,0,0.667,0.667,0,0,0,0,0,0,0,0,0.6686,0.6685,0.6681,0.6681,0.6681,0.6678,0.6678,0.6673,0.6678,0.6679,0.6678,0.6678,0.6674,0.6673,0.6672,0.6667,0.6666,0.667,0.667,0.667,0.667,0,0,0,0,0,0,0,0.6686,0.6685,0.6679,0.6681,0.6681,0.6681,0.6681,0.6677,0.6676,0.6679,0.6679,0.6678,0.6674,0.6673,0.6672,0.6666,0.667,0.667,0.667,0.667,0.6657,0.6657,0,0,0,0,0,0,0.6686,0.6686,0.668,0.6679,0.6684,0.6681,0.668,0.6679,0.6676,0.6675,0.6678,0.6678,0.6673,0.6673,0.6672,0.6667,0.667,0.667,0.667,0.6657,0.6657,0.6657,0,0,0,0,0,0,0.6687,0.6686,0.668,0.6683,0.6682,0.668,0.6679,0.6679,0.6677,0.6675,0.6675,0.6677,0.6673,0.6672,0.6668,0.6666,0.667,0.6669,0.6658,0.6657,0.6657,0.6656,0,0,0,0,0,0,0.6687,0.6686,0.6684,0.6683,0.6682,0.6677,0.6679,0.6679,0.6677,0.6677,0.6674,0.6674,0.6673,0.6669,0.6668,0.6666,0.6669,0.6658,0.6658,0.6657,0.6656,0.6656,0.6655,0,0,0,0,0,0.6687,0.6684,0.6684,0.6684,0.668,0.6676,0.6676,0.6676,0.6677,0.6675,0.6674,0.6674,0.6667,0.6669,0.6668,0.6665,0.6658,0.6658,0.6657,0.6656,0.6656,0.6655,0,0,0,0,0,0,0.6685,0.6683,0.6684,0.668,0.6678,0.6677,0.6674,0.6675,0.6673,0.6673,0.6672,0.6671,0.6667,0.6666,0.6668,0.6661,0.6663,0.6662,0.6662,0.6662,0.6661,0.6662,0.6669,0,0,0,0,0,0.6684,0.6682,0.6681,0.6677,0.6676,0.6676,0.6674,0.6674,0.6672,0.6671,0.667,0.6668,0.6665,0.6663,0.6661,0.6656,0.6656,0.6654,0.6654,0.6654,0.6653,0.6651,0.665,0.6656,0.6656,0.6656,0,0,0.6681,0.6681,0.6679,0.6676,0.6675,0.6673,0.6675,0.6672,0.6671,0.6671,0.6667,0.6666,0.6664,0.666,0.6658,0.6658,0.6651,0.6653,0.6653,0.6653,0.6651,0.665,0.665,0.6656,0.6656,0.6656,0,0,0.6676,0.6676,0.6673,0.6672,0.667,0.667,0.6669,0.6668,0.6667,0.6664,0.6664,0.6662,0.6657,0.6656,0.6654,0.665,0.665,0.6649,0.6647,0.6645,0.6644,0.6644,0.6643,0.6642,0.6648,0.6648,0.6648,0,0.6674,0.6671,0.6671,0.6669,0.6668,0.6669,0.6666,0.6665,0.6662,0.6661,0.6662,0.6657,0.6655,0.6651,0.665,0.6649,0.6648,0.6649,0.6644,0.6644,0.6644,0.6642,0.6642,0.6648,0.6648,0.6648,0.6648,0,0.6668,0.6666,0.6663,0.6662,0.666,0.6658,0.6658,0.6656,0.6657,0.6656,0.6653,0.6651,0.6649,0.6648,0.6647,0.6644,0.6644,0.6645,0.6646,0.6643,0.6642,0.6641,0.6648,0.6648,0.6648,0.6648,0,0,0.666,0.666,0.6659,0.6658,0.6657,0.6655,0.6653,0.6651,0.665,0.6648,0.6646,0.6643,0.6644,0.6642,0.6642,0.664,0.6637,0.6641,0.6641,0.6641,0.6633,0.6633,0.6632,0.6637,0.6637,0.6637,0.6633,0,0.6655,0.6651,0.6652,0.6648,0.6646,0.6648,0.6646,0.6645,0.6644,0.6643,0.6642,0.664,0.6641,0.664,0.6639,0.6638,0.6636,0.6638,0.6635,0.6635,0.6636,0.6631,0.663,0.6627,0.6633,0.6633,0.6633,0,0.6649,0.6648,0.6644,0.6644,0.6643,0.6641,0.664,0.6638,0.6637,0.6637,0.6636,0.6636,0.6634,0.6635,0.6632,0.6634,0.6633,0.6632,0.6632,0.6632,0.6634,0.6631,0.6626,0.6625,0.6632,0.6632,0.6632,0,0.6644,0.6641,0.6639,0.6639,0.6638,0.6637,0.6637,0.6636,0.6635,0.6634,0.6633,0.6631,0.663,0.6629,0.6629,0.663,0.6625,0.6627,0.6625,0.6625,0.6624,0.6624,0.6619,0.6623,0.6623,0.6623,0.6623,0,0.6638,0.6636,0.6637,0.6635,0.6633,0.6634,0.6631,0.6631,0.6631,0.6629,0.663,0.6628,0.6628,0.6627,0.6627,0.6624,0.6624,0.6623,0.6623,0.6623,0.6623,0.6622,0.6623,0.6623,0.6623,0.6623,0.6623,0,0.6632,0.6633,0.663,0.6631,0.6631,0.6629,0.6629,0.6627,0.6628,0.6626,0.6625,0.6625,0.6624,0.6624,0.6621,0.6621,0.6618,0.6618,0.6619,0.6619,0.6617,0.6617,0.6611,0.661,0.6615,0.6615,0.6615,0,0.6628,0.6627,0.6627,0.6626,0.6626,0.6625,0.6624,0.6625,0.6624,0.6624,0.6622,0.6621,0.662,0.6617,0.6616,0.6615,0.6615,0.6613,0.6615,0.6615,0.6615,0.6615,0.6615,0.6613,0.6613,0.6612,0.6612,0,0.6622,0.6622,0.6621,0.6621,0.662,0.662,0.6619,0.6618,0.6619,0.6618,0.6617,0.6616,0.6615,0.6613,0.6612,0.6611,0.6612,0.6612,0.6612,0.6611,0.6612,0.6612,0.6618,0.6612,0.6612,0.6612,0.6612,0.6612,0.6617,0.6616,0.6616,0.6615,0.6615,0.6615,0.6614,0.6614,0.6613,0.6612,0.6613,0.6611,0.6611,0.6609,0.6609,0.6607,0.6608,0.6607,0.6607,0.6607,0.6607,0.6612,0.6607,0.6607,0.6607,0.6607,0.6607,0,0.661,0.6611,0.661,0.661,0.6609,0.6611,0.661,0.661,0.6608,0.6608,0.6607,0.6606,0.6605,0.6605,0.6604,0.6603,0.6603,0.6603,0.6603,0.6603,0.6606,0.6607,0.6602,0.6602,0.6602,0.6602,0.6602,0.6602,0.6607,0.6605,0.6606,0.6604,0.6605,0.6604,0.6603,0.6603,0.6603,0.6602,0.6601,0.6601,0.6601,0.66,0.6599,0.66,0.6599,0.6598,0.6598,0.6602,0.6602,0.6603,0.6603,0.6598,0.6598,0.6595,0.6595,0.6595]}]]